Tracking 25734 objects as of 29-May-2022
HD Live streaming from Space Station
objects crossing your sky now

THOR ABLESTAR R/B

Track THOR ABLESTAR R/B now!
10-day predictions


NORAD ID: 669
Int'l Code: 1963-038A
Perigee: 1,073.4 km
Apogee: 1,114.9 km
Inclination: 90.0 °
Period: 107.0 minutes
Semi major axis: 7465 km
RCS: 3.7272 m2 (large)
Launch date: September 28, 1963
Source: United States (US)
Launch site: AIR FORCE WESTERN TEST RANGE (AFWTR)

Note: This is a ROCKET BODY
aabbcc
Your satellite tracking list
Your tracking list is empty




NASA's NSSDC Master Catalog

Two Line Element Set (TLE):
1 00669U 63038A   22148.78939530  .00000044  00000-0  58417-4 0  9999
2 00669  90.0260 333.9622 0027804  48.4697 323.1225 13.46000856880543
Source of the keplerian elements: AFSPC